Date,TemperatureHighF,TemperatureAvgF,TemperatureLowF,DewpointHighF,DewpointAvgF,DewpointLowF,HumidityHigh,HumidityAvg,HumidityLow,PressureMaxIn,PressureMinIn,WindSpeedMaxMPH,WindSpeedAvgMPH,GustSpeedMaxMPH,PrecipitationSumIn
2013-1-1,32,29,22,30,25,16,94,85,73,30.18,30.07,5,0,5,0.00
2013-1-2,27,18,10,16,12,7,90,78,57,30.33,30.15,8,0,8,0.00
2013-1-3,33,19,2,22,12,-1,91,76,55,30.33,30.24,19,2,19,0.00
2013-1-4,34,29,26,23,20,18,78,69,57,30.35,30.25,23,6,23,0.00
2013-1-5,40,30,19,27,22,15,88,73,55,30.45,30.21,14,2,14,0.01
2013-1-6,38,36,31,33,29,26,89,78,69,30.32,30.04,16,3,16,0.04
2013-1-7,37,31,25,28,26,22,87,80,66,30.53,30.32,13,2,14,0.00
2013-1-8,45,30,18,32,24,16,92,81,58,30.43,30.31,12,1,12,0.00
2013-1-9,48,38,22,41,31,20,93,78,58,30.56,30.27,15,3,15,0.05
2013-1-10,42,35,24,32,28,22,93,79,62,30.66,30.30,8,0,8,0.00
2013-1-11,59,48,39,53,43,30,96,85,67,30.30,29.94,15,1,15,0.44
2013-1-12,63,58,46,59,55,45,96,90,79,30.09,29.91,13,2,16,0.01
2013-1-13,67,63,44,59,56,41,92,81,70,30.01,29.80,24,4,24,0.19
2013-1-14,44,34,28,41,28,22,92,79,69,30.45,30.01,13,1,13,0.01
2013-1-15,34,29,23,24,23,20,90,79,63,30.47,30.15,10,0,10,0.00
2013-1-16,36,32,30,30,28,24,93,82,73,30.17,29.97,18,2,18,0.00
2013-1-17,37,34,29,30,28,19,86,77,67,30.31,30.09,12,2,12,0.00
2013-1-18,34,27,17,22,16,10,78,64,51,30.58,30.28,19,4,24,0.00
2013-1-19,54,44,34,28,24,19,61,46,26,30.28,29.85,27,6,27,0.00
2013-1-20,48,34,24,33,19,13,65,55,46,30.22,29.82,30,6,30,0.00
2013-1-21,24,21,14,19,14,1,86,73,52,30.20,30.03,22,3,22,0.00
2013-1-22,14,10,4,4,1,-2,81,67,54,30.41,30.30,20,3,22,0.00
2013-1-23,18,10,1,13,4,-3,87,74,50,30.42,30.18,15,1,15,0.00
2013-1-24,26,17,11,14,9,3,89,72,39,30.65,30.17,11,1,12,0.00
2013-1-25,21,17,11,17,11,5,87,77,66,30.60,30.12,9,1,9,0.00
2013-1-26,28,24,19,22,18,15,89,79,61,30.54,30.18,11,2,11,0.00
2013-1-27,32,23,7,24,16,3,90,74,58,30.62,30.34,8,1,9,0.03
2013-1-28,50,42,31,49,40,24,96,92,75,30.35,30.06,16,3,16,0.06
2013-1-29,67,58,50,57,53,49,96,83,66,30.11,29.73,24,3,24,0.02
2013-1-30,68,59,38,58,52,34,90,79,65,29.73,29.21,26,5,28,0.56
2013-1-31,37,27,21,34,20,13,90,76,61,29.94,29.36,31,8,31,0.01
2013-2-1,21,15,13,15,7,4,80,70,59,30.43,29.94,21,6,23,0.00
2013-2-2,25,19,10,22,14,5,90,82,71,30.42,30.06,18,2,19,0.00
2013-2-3,25,22,18,22,17,12,91,81,72,30.15,29.96,19,2,19,0.00
2013-2-4,26,22,15,24,18,11,91,86,77,30.17,29.94,9,1,9,0.00
2013-2-5,31,28,26,27,24,21,93,87,68,30.03,29.93,10,1,11,0.00
2013-2-6,34,28,14,26,21,11,91,77,55,30.39,30.03,8,1,8,0.07
2013-2-7,49,31,12,31,23,10,89,74,47,30.36,29.96,11,1,12,0.11
2013-2-8,42,34,26,37,29,21,92,84,78,30.31,29.82,16,3,17,0.15
2013-2-9,36,27,18,22,20,15,91,74,54,30.50,30.31,11,1,12,0.00
2013-2-10,51,35,15,37,22,13,91,65,37,30.41,29.93,17,1,17,0.00
2013-2-11,56,46,37,46,36,26,91,70,44,29.99,29.75,36,7,36,0.00
2013-2-12,45,36,27,28,26,23,88,68,50,30.15,29.97,19,3,19,0.00
2013-2-13,36,30,23,29,26,21,93,85,75,29.97,29.78,5,0,5,0.00
2013-2-14,40,34,25,36,30,23,93,88,79,30.00,29.91,16,2,19,0.00
2013-2-15,38,33,27,32,27,22,91,81,60,30.16,30.00,12,1,12,0.01
2013-2-16,31,26,19,23,17,10,89,70,45,30.15,30.03,13,2,14,0.00
2013-2-17,24,19,13,15,11,7,84,72,55,30.34,30.07,16,3,16,0.00
2013-2-18,49,30,9,32,18,6,89,64,42,30.37,29.87,13,2,15,0.00
2013-2-19,51,35,21,39,28,14,90,77,47,30.06,29.70,31,7,31,0.30
2013-2-20,23,20,18,17,13,8,86,73,62,30.33,30.06,25,6,25,0.00
2013-2-21,29,23,20,18,16,14,87,74,60,30.44,30.31,10,1,10,0.00
2013-2-22,43,33,23,40,28,15,92,82,71,30.36,30.01,16,1,16,0.01
2013-2-23,44,37,27,35,30,23,92,79,58,30.05,29.92,13,1,14,0.00
2013-2-24,34,30,27,26,23,21,91,76,60,30.22,29.95,12,2,12,0.00
2013-2-25,47,34,22,28,24,20,92,68,41,30.29,30.09,11,1,11,0.00
2013-2-26,40,36,30,38,30,23,92,81,58,30.10,29.57,17,2,17,1.03
2013-2-27,42,39,34,40,36,30,95,89,81,29.73,29.56,19,4,19,0.35
2013-2-28,37,34,32,33,31,28,93,87,83,29.93,29.67,16,4,16,0.00
2013-3-1,33,30,27,29,25,20,88,81,70,30.08,29.93,10,1,10,0.00
2013-3-2,31,28,25,25,22,20,89,81,66,30.07,30.02,9,1,10,0.00
2013-3-3,29,26,23,23,19,14,88,76,63,30.13,30.05,12,3,13,0.00
2013-3-4,39,28,18,22,18,14,86,67,45,30.23,30.11,13,2,13,0.01
2013-3-5,46,34,21,31,20,14,90,58,28,30.17,29.67,14,1,16,0.00
2013-3-6,43,37,32,34,32,28,94,81,65,30.22,29.67,8,1,8,0.32
2013-3-7,42,35,30,34,30,27,90,82,66,30.40,30.21,9,1,11,0.00
2013-3-8,43,33,26,31,27,22,90,78,57,30.52,30.39,10,1,10,0.00
2013-3-9,58,39,21,33,27,19,93,67,33,30.50,30.19,11,1,11,0.00
2013-3-10,72,58,45,41,34,30,84,43,24,30.18,29.93,11,2,17,0.02
2013-3-11,64,56,45,50,40,33,90,57,34,29.93,29.64,19,3,19,0.52
2013-3-12,45,38,34,38,32,28,89,76,67,30.05,29.80,21,4,21,0.01
2013-3-13,34,31,28,31,25,20,92,80,61,30.26,29.99,24,4,25,0.00
2013-3-14,42,31,23,24,20,17,80,66,44,30.33,30.21,16,3,16,0.00
2013-3-15,51,39,25,39,29,21,90,70,53,30.22,29.89,18,3,20,0.01
2013-3-16,43,39,32,40,37,28,94,91,86,30.05,29.66,8,1,9,0.05
2013-3-17,37,33,29,28,26,23,87,76,64,30.25,30.05,7,1,7,0.00
2013-3-18,49,39,30,47,35,23,94,88,71,30.20,29.68,23,2,23,0.12
2013-3-19,46,35,31,42,26,18,89,69,54,30.05,29.76,32,6,32,0.00
2013-3-20,38,31,24,23,19,15,84,61,46,30.05,29.94,26,4,29,0.00
2013-3-21,30,24,16,24,16,9,88,71,56,30.03,29.96,18,3,18,0.00
2013-3-22,41,30,25,23,21,18,80,68,46,30.10,30.01,15,3,16,0.00
2013-3-23,48,34,19,28,23,17,92,67,37,30.13,30.05,11,1,12,0.00
2013-3-24,40,34,28,31,24,22,81,68,52,30.06,29.53,15,1,15,0.00
2013-3-25,36,34,33,34,32,30,94,92,80,29.87,29.45,11,1,11,0.46
2013-3-26,43,36,33,34,31,28,93,82,59,30.17,29.87,13,2,15,0.18
2013-3-27,43,38,34,31,29,24,88,71,48,30.26,30.16,16,4,16,0.00
2013-3-28,46,40,34,31,28,26,82,64,52,30.33,30.23,13,2,14,0.00
2013-3-29,54,42,29,32,27,23,87,59,33,30.34,30.23,15,1,18,0.00
2013-3-30,57,41,23,33,25,20,92,59,25,30.32,30.04,14,1,14,0.00
2013-3-31,51,44,35,46,39,29,89,80,61,30.04,29.76,15,2,15,0.03
2013-4-1,48,41,33,42,25,14,85,56,31,30.12,29.75,16,4,16,0.00
2013-4-2,42,32,23,19,16,14,71,51,34,30.28,30.11,15,2,17,0.00
2013-4-3,43,33,24,21,16,12,77,52,31,30.48,30.28,19,2,19,0.00
2013-4-4,55,36,18,24,14,2,87,50,12,30.46,30.04,12,1,12,0.00
2013-4-5,56,40,25,34,25,17,84,58,30,30.26,30.00,12,1,12,0.00
2013-4-6,61,44,24,23,16,5,82,40,12,30.34,30.00,16,1,19,0.00
2013-4-7,74,63,52,48,37,11,67,40,19,30.02,29.89,32,6,32,0.00
2013-4-8,73,61,45,54,46,39,82,60,40,30.04,29.89,25,4,28,0.00
2013-4-9,82,70,53,57,53,48,84,57,40,30.11,29.90,22,4,25,0.00
2013-4-10,80,69,59,66,59,54,95,73,55,29.94,29.76,21,3,21,1.00
2013-4-11,68,60,57,61,57,53,96,89,78,29.91,29.55,20,1,20,0.01
2013-4-12,61,52,43,59,46,35,95,83,68,29.91,29.48,21,4,24,0.49
2013-4-13,49,44,37,37,35,31,84,72,58,30.09,29.90,21,4,21,0.00
2013-4-14,66,48,29,41,34,27,94,64,35,30.20,30.01,10,1,11,0.00
2013-4-15,68,62,51,53,47,38,67,58,51,30.08,29.98,20,2,24,0.00
2013-4-16,79,64,55,62,55,50,93,73,54,30.18,30.01,23,3,23,0.25
2013-4-17,68,58,51,56,52,47,94,79,61,30.27,30.07,10,1,10,0.00
2013-4-18,87,73,58,63,58,54,90,62,35,30.10,29.69,31,4,31,0.00
2013-4-19,76,58,42,61,46,29,87,65,48,29.91,29.41,26,7,27,0.19
2013-4-20,45,41,35,32,28,25,81,62,47,30.47,29.91,22,4,23,0.00
2013-4-21,56,40,25,30,25,21,93,58,28,30.65,30.46,13,1,13,0.00
2013-4-22,68,51,31,39,32,25,85,53,29,30.50,30.25,17,1,17,0.00
2013-4-23,74,59,40,42,36,25,73,44,26,30.26,29.92,16,2,18,0.00
2013-4-24,65,53,36,56,45,33,92,78,40,30.21,29.74,21,2,21,0.84
2013-4-25,57,43,32,43,35,30,95,76,40,30.41,30.21,21,3,23,0.03
2013-4-26,62,46,30,43,32,24,95,64,26,30.53,30.41,10,1,10,0.00
2013-4-27,74,54,32,42,34,25,95,55,20,30.43,30.14,13,1,13,0.00
2013-4-28,60,54,47,57,50,39,95,85,66,30.16,29.91,8,0,9,1.05
2013-4-29,65,59,54,59,55,53,95,89,76,30.02,29.91,9,1,10,0.25
2013-4-30,79,62,45,58,52,44,96,73,41,30.14,30.02,12,1,12,0.00
2013-5-1,80,67,51,57,53,46,92,63,38,30.28,30.14,17,1,17,0.00
2013-5-2,80,67,53,54,45,39,66,47,33,30.32,30.16,13,1,13,0.00
2013-5-3,80,67,53,46,40,33,68,39,21,30.21,30.07,19,2,19,0.00
2013-5-4,74,63,52,47,39,30,66,43,20,30.17,30.05,13,1,14,0.00
2013-5-5,77,64,50,44,35,24,74,40,15,30.11,29.98,15,1,15,0.00
2013-5-6,75,64,54,53,46,29,71,52,30,30.05,29.96,18,1,18,0.00
2013-5-7,69,62,56,60,55,52,93,79,64,30.02,29.97,10,1,10,0.04
2013-5-8,76,64,57,57,54,48,93,71,40,29.99,29.92,9,0,9,0.03
2013-5-9,82,66,55,61,55,47,96,74,30,30.01,29.93,11,1,11,0.09
2013-5-10,75,64,58,65,60,56,95,87,67,29.98,29.80,22,2,22,0.51
2013-5-11,62,55,48,60,51,43,94,87,74,29.91,29.78,12,2,12,0.04
2013-5-12,53,46,36,44,34,28,89,64,41,30.14,29.91,18,3,22,0.00
2013-5-13,55,43,30,33,30,26,93,62,35,30.22,30.12,13,1,14,0.00
2013-5-14,68,51,31,49,38,29,93,65,35,30.22,29.88,17,1,17,0.00
2013-5-15,87,70,53,63,56,44,88,63,38,29.88,29.73,19,2,20,0.00
2013-5-16,82,69,59,63,56,44,96,68,31,29.97,29.78,11,1,11,0.75
2013-5-17,84,68,58,64,59,52,96,75,38,30.11,29.97,7,0,8,0.00
2013-5-18,81,68,52,66,57,46,85,69,50,30.14,30.02,8,0,8,0.00
2013-5-19,81,71,60,68,64,58,95,79,59,30.08,29.94,12,1,12,0.00
2013-5-20,84,74,64,72,67,62,94,82,64,30.02,29.89,13,1,13,0.00
2013-5-21,86,75,69,71,67,64,92,78,50,29.93,29.80,17,2,17,0.06
2013-5-22,85,75,65,67,63,60,90,69,46,29.86,29.73,21,2,22,0.05
2013-5-23,76,65,46,64,58,42,91,80,53,30.01,29.75,19,3,19,0.05
2013-5-24,50,45,36,42,38,34,91,75,56,30.36,30.01,12,2,12,0.00
2013-5-25,65,48,31,41,36,29,95,67,34,30.43,30.30,13,1,13,0.01
2013-5-26,70,52,34,42,37,32,95,61,27,30.37,30.25,8,1,9,0.00
2013-5-27,66,53,42,52,46,39,93,77,51,30.30,30.08,8,0,8,0.04
2013-5-28,84,68,54,69,61,52,96,78,53,30.08,29.95,19,2,19,0.53
2013-5-29,86,77,69,66,62,59,79,62,42,30.07,29.98,18,3,18,0.00
2013-5-30,89,76,62,69,64,60,95,70,43,30.17,30.05,14,1,14,0.00
2013-5-31,89,75,61,68,64,60,96,73,44,30.10,29.95,22,2,28,0.07
2013-6-1,84,75,66,70,67,64,94,77,60,29.99,29.76,20,2,20,0.28
2013-6-2,78,72,66,68,63,58,94,76,53,29.88,29.75,24,2,25,1.08
2013-6-3,70,62,50,60,52,41,86,72,51,30.10,29.88,7,1,8,0.00
2013-6-4,78,58,40,56,46,38,95,67,35,30.20,30.10,8,0,8,0.00
2013-6-5,86,67,48,63,53,46,92,65,35,30.17,29.91,6,0,6,0.00
2013-6-6,70,65,58,67,63,56,96,92,73,29.93,29.77,11,1,11,1.24
2013-6-7,64,60,57,59,57,55,96,90,82,29.90,29.81,5,0,5,0.00
2013-6-8,76,64,56,62,56,54,95,78,53,30.11,29.90,10,0,10,0.00
2013-6-9,85,70,58,69,62,56,94,79,53,30.16,29.99,9,0,9,0.01
2013-6-10,75,68,62,69,65,60,95,90,75,30.00,29.76,22,1,22,2.82
2013-6-11,81,70,62,68,65,61,96,83,59,29.90,29.80,11,1,11,0.01
2013-6-12,84,74,64,75,68,62,94,81,63,29.92,29.72,11,0,11,0.05
2013-6-13,75,68,60,67,62,52,95,81,56,29.86,29.49,16,2,16,0.89
2013-6-14,76,64,56,62,57,54,95,80,56,30.09,29.85,7,1,7,0.00
2013-6-15,81,64,48,64,55,47,96,75,40,30.16,30.00,10,0,10,0.00
2013-6-16,77,70,63,68,64,60,93,84,71,30.02,29.91,17,2,18,0.11
2013-6-17,87,72,64,68,64,55,96,80,41,29.97,29.89,10,1,10,0.21
2013-6-18,83,71,62,70,64,54,96,81,55,30.00,29.85,8,0,8,0.01
2013-6-19,80,65,53,55,51,45,88,64,30,30.17,30.00,8,0,8,0.00
2013-6-20,84,66,50,64,54,48,96,70,33,30.25,30.17,7,0,8,0.00
2013-6-21,89,71,54,68,59,53,96,72,37,30.26,30.15,7,0,8,0.00
2013-6-22,90,75,60,74,65,59,96,75,45,30.18,30.05,10,1,10,0.00
2013-6-23,89,77,66,74,68,64,96,76,45,30.13,30.02,12,1,12,0.00
2013-6-24,90,77,64,70,66,62,95,72,47,30.14,29.99,13,1,13,0.00
2013-6-25,89,77,67,77,69,64,94,78,60,30.04,29.86,17,2,17,1.15
2013-6-26,83,74,67,74,69,66,96,87,69,29.93,29.79,12,1,13,1.30
2013-6-27,82,73,67,72,69,66,96,89,68,29.80,29.63,10,0,11,0.54
2013-6-28,85,71,62,72,67,60,97,87,55,29.64,29.50,17,1,17,0.45
2013-6-29,79,67,60,70,63,58,96,88,62,29.69,29.55,8,0,8,0.22
2013-6-30,86,70,62,70,65,61,97,86,54,29.85,29.69,10,0,10,0.69
2013-7-1,82,70,65,71,66,63,97,89,62,29.95,29.83,7,0,8,0.04
2013-7-2,84,74,66,71,68,65,96,83,61,30.05,29.92,8,0,8,0.05
2013-7-3,77,70,68,71,68,67,96,93,81,30.14,30.04,6,0,7,0.14
2013-7-4,80,73,69,72,70,68,96,88,74,30.20,30.12,8,0,9,0.06
2013-7-5,82,73,68,72,70,67,96,89,72,30.16,30.09,10,1,10,0.21
2013-7-6,87,76,69,76,71,68,97,83,61,30.16,30.01,10,1,12,0.00
2013-7-7,81,74,69,70,67,64,91,80,63,30.10,30.00,12,1,12,0.01
2013-7-8,86,73,63,73,67,61,94,82,62,30.12,30.03,10,1,12,0.22
2013-7-9,88,75,70,78,71,68,95,90,68,30.09,29.94,8,1,14,1.10
2013-7-10,86,71,66,78,69,64,96,94,78,29.99,29.85,14,1,14,0.91
2013-7-11,77,68,65,66,65,63,96,91,64,30.00,29.92,6,0,6,0.01
2013-7-12,80,70,66,68,65,63,92,83,59,30.11,30.06,4,0,4,0.00
2013-7-13,89,73,62,72,66,61,96,79,51,30.21,30.10,5,0,7,0.00
2013-7-14,90,77,66,77,70,65,97,80,53,30.26,30.19,13,1,13,0.00
2013-7-15,95,80,69,77,71,68,97,78,46,30.33,30.23,7,0,7,0.00
2013-7-16,96,78,69,79,74,68,97,86,53,30.32,30.24,7,0,7,0.05
2013-7-17,95,81,71,79,74,70,97,82,52,30.29,30.13,7,0,7,0.00
2013-7-18,96,82,72,79,74,71,97,80,51,30.18,30.00,7,0,8,0.00
2013-7-19,93,79,73,76,73,70,95,83,55,30.01,29.85,14,1,15,0.37
2013-7-20,81,75,72,72,70,68,94,85,68,29.92,29.82,13,1,13,0.03
2013-7-21,88,74,69,75,70,67,96,87,57,29.96,29.89,10,0,10,0.31
2013-7-22,74,70,67,73,69,66,97,95,92,29.94,29.76,10,0,11,1.61
2013-7-23,83,71,65,74,67,64,97,90,68,29.80,29.66,13,1,14,0.67
2013-7-24,76,66,57,66,59,54,96,79,52,30.02,29.77,7,0,7,0.00
2013-7-25,80,64,51,60,55,50,96,75,40,30.10,30.01,11,0,11,0.00
2013-7-26,82,67,52,65,57,50,97,75,40,30.12,29.99,8,0,8,0.00
2013-7-27,71,66,62,68,64,60,95,91,82,29.99,29.83,11,0,11,0.10
2013-7-28,72,64,57,64,57,52,96,78,52,30.04,29.84,13,1,13,0.01
2013-7-29,74,64,53,62,56,51,95,77,51,30.21,30.04,14,1,15,0.00
2013-7-30,82,66,52,65,58,51,96,79,43,30.25,30.15,8,0,8,0.00
2013-7-31,76,67,59,69,64,58,96,89,72,30.16,29.94,4,0,5,0.05
2013-8-1,84,72,64,68,64,61,95,78,50,29.94,29.86,10,1,11,0.03
2013-8-2,76,68,57,65,60,56,96,78,51,30.01,29.91,12,1,15,0.00
2013-8-3,83,70,59,68,63,56,95,78,49,30.00,29.92,10,1,10,0.20
2013-8-4,78,65,54,61,57,53,96,77,48,30.12,30.00,9,1,9,0.00
2013-8-5,77,63,51,63,56,50,96,81,48,30.16,30.02,7,0,7,0.00
2013-8-6,83,68,56,65,59,54,96,76,45,30.04,29.95,9,0,9,0.00
2013-8-7,84,70,61,75,66,59,96,90,72,29.97,29.89,12,0,12,0.71
2013-8-8,85,75,70,76,72,68,97,90,73,29.96,29.88,11,0,11,0.18
2013-8-9,81,71,63,71,68,61,97,89,59,30.03,29.87,9,0,9,0.19
2013-8-10,84,70,61,71,65,60,96,85,57,30.10,30.03,7,0,7,0.05
2013-8-11,85,71,61,73,65,60,97,85,62,30.12,30.01,4,0,5,0.00
2013-8-12,85,72,60,72,65,58,97,81,54,30.07,29.86,10,0,10,0.04
2013-8-13,78,70,55,70,63,51,96,80,56,30.00,29.79,10,1,12,0.00
2013-8-14,70,58,50,58,53,49,96,84,61,30.18,30.00,8,0,10,0.00
2013-8-15,77,60,46,60,51,44,97,78,41,30.24,30.12,8,0,8,0.01
2013-8-16,80,64,51,62,55,50,96,77,43,30.20,30.14,6,0,7,0.00
2013-8-17,84,66,54,64,58,53,96,76,40,30.24,30.18,7,0,7,0.00
2013-8-18,73,66,58,66,62,56,95,88,76,30.22,30.13,6,0,6,0.00
2013-8-19,82,70,62,67,64,60,96,84,51,30.16,30.08,6,0,6,0.00
2013-8-20,86,69,56,70,62,55,97,82,47,30.20,30.11,7,0,7,0.00
2013-8-21,87,70,58,71,65,57,96,85,50,30.20,30.06,5,0,5,0.00
2013-8-22,83,73,64,73,68,62,95,86,69,30.11,29.98,12,1,12,0.00
2013-8-23,87,73,62,72,66,57,96,82,46,30.17,29.99,5,0,5,0.66
2013-8-24,86,67,54,65,57,51,96,75,33,30.31,30.17,4,0,4,0.00
2013-8-25,84,68,54,68,60,52,96,78,40,30.37,30.24,9,1,9,0.00
2013-8-26,86,73,61,72,65,58,93,76,51,30.27,30.03,11,1,12,0.00
2013-8-27,79,74,70,74,71,68,95,91,82,30.05,29.91,10,0,10,0.27
2013-8-28,84,77,72,76,73,70,95,86,72,29.94,29.82,13,1,13,0.01
2013-8-29,91,76,68,73,70,66,95,83,50,30.04,29.93,5,0,5,0.00
2013-8-30,88,74,62,74,68,61,97,83,54,30.01,29.82,10,1,10,0.00
2013-8-31,88,77,70,76,71,68,95,84,62,29.85,29.70,9,1,16,0.05
2013-9-1,83,76,71,72,70,69,96,84,65,29.82,29.75,10,1,10,0.00
2013-9-2,85,73,62,73,68,61,95,88,63,29.86,29.73,12,1,12,0.11
2013-9-3,70,63,56,62,58,54,96,86,63,30.07,29.86,7,1,7,0.00
2013-9-4,80,63,48,62,56,47,97,81,51,30.16,30.06,11,1,11,0.01
2013-9-5,80,66,54,63,56,46,96,74,37,30.24,30.09,8,1,8,0.00
2013-9-6,78,59,44,55,49,43,96,74,34,30.30,30.14,5,0,5,0.00
2013-9-7,83,64,47,67,56,46,96,78,45,30.15,29.96,9,0,9,0.00
2013-9-8,81,70,60,70,64,57,95,82,67,30.06,29.92,8,0,8,0.00
2013-9-9,88,70,55,73,64,53,95,82,58,30.08,29.98,13,0,13,0.00
2013-9-10,92,81,72,78,73,68,90,79,60,30.10,30.02,15,2,15,0.00
2013-9-11,91,80,74,76,73,69,93,79,53,30.12,29.98,6,1,11,0.00
2013-9-12,76,71,62,70,67,60,95,90,80,29.98,29.82,12,1,12,0.54
2013-9-13,67,58,51,59,54,48,95,86,66,30.08,29.85,10,1,10,0.13
2013-9-14,71,55,44,53,47,43,96,77,39,30.20,30.08,7,0,7,0.01
2013-9-15,69,56,42,58,50,40,96,83,51,30.21,30.08,10,0,10,0.01
2013-9-16,73,61,52,59,55,49,96,83,51,30.33,30.11,10,0,10,0.07
2013-9-17,75,56,43,57,50,42,96,80,45,30.41,30.25,7,0,7,0.01
2013-9-18,75,60,46,62,54,45,96,84,60,30.26,30.11,10,0,10,0.00
2013-9-19,75,67,62,66,64,60,94,88,73,30.14,30.02,10,0,10,0.00
2013-9-20,84,74,66,72,69,64,95,85,68,30.03,29.79,10,1,10,0.00
2013-9-21,73,65,55,70,62,53,95,90,71,29.82,29.67,16,0,16,0.79
2013-9-22,62,54,48,53,49,46,96,83,57,30.06,29.83,8,0,8,0.00
2013-9-23,61,53,43,50,47,42,94,82,58,30.18,30.07,6,0,6,0.00
2013-9-24,72,52,37,54,45,36,96,81,45,30.17,30.00,5,0,7,0.01
2013-9-25,78,56,43,62,51,42,96,85,44,30.02,29.90,4,0,4,0.00
2013-9-26,80,60,46,59,51,45,96,76,34,30.12,29.97,3,0,6,0.00
2013-9-27,78,59,44,59,51,43,96,79,41,30.22,30.12,6,0,6,0.01
2013-9-28,79,60,46,60,53,44,96,81,46,30.26,30.13,11,0,11,0.00
2013-9-29,76,62,52,63,57,50,95,84,60,30.14,30.00,8,0,8,0.00
2013-9-30,66,63,60,62,60,58,95,90,79,30.05,29.99,9,0,11,0.00
2013-10-1,79,65,55,66,60,54,96,84,54,30.11,30.01,12,0,12,0.00
2013-10-2,82,67,58,68,62,56,95,84,57,30.11,30.04,10,0,11,0.01
2013-10-3,82,68,60,70,64,58,96,90,64,30.09,30.00,6,0,10,0.42
2013-10-4,82,70,64,70,66,62,97,90,60,30.10,30.04,12,0,12,0.02
2013-10-5,78,70,65,71,68,64,96,93,78,30.07,29.96,10,0,11,1.13
2013-10-6,83,73,61,70,66,55,96,82,57,29.96,29.71,18,2,22,0.00
2013-10-7,61,54,49,55,48,45,94,81,62,30.17,29.75,16,2,18,0.76
2013-10-8,71,54,43,53,47,41,96,79,42,30.33,30.17,6,0,6,0.00
2013-10-9,73,53,39,53,44,38,96,76,32,30.35,30.24,10,0,10,0.01
2013-10-10,73,54,42,54,46,40,95,79,45,30.25,30.12,5,0,6,0.00
2013-10-11,76,58,45,61,51,43,95,78,39,30.15,30.06,8,0,10,0.00
2013-10-12,78,63,52,65,58,50,95,85,60,30.14,30.07,9,0,9,0.00
2013-10-13,73,64,59,64,60,58,94,87,70,30.29,30.14,6,0,6,0.07
2013-10-14,73,61,51,58,53,47,94,77,51,30.35,30.23,6,0,7,0.00
2013-10-15,70,58,47,63,55,45,94,88,71,30.25,29.97,7,0,7,0.00
2013-10-16,65,63,53,62,59,50,93,89,75,29.98,29.85,13,1,14,0.19
2013-10-17,57,50,43,52,47,41,95,91,78,29.95,29.80,10,1,10,0.40
2013-10-18,63,52,43,48,44,41,94,77,47,30.06,29.94,16,2,16,0.00
2013-10-19,55,46,41,48,43,39,94,88,75,30.00,29.77,15,1,16,0.18
2013-10-20,60,48,38,44,40,36,92,75,49,30.06,29.99,18,2,18,0.00
2013-10-21,66,54,40,49,40,37,90,62,39,30.06,29.88,14,2,17,0.00
2013-10-22,55,45,35,49,36,29,92,73,45,30.02,29.88,11,1,12,0.18
2013-10-23,44,40,36,40,36,32,94,88,66,30.01,29.82,7,0,7,0.07
2013-10-24,46,38,32,35,32,29,91,79,56,30.23,29.99,13,2,15,0.01
2013-10-25,49,38,31,36,32,29,93,78,53,30.42,30.23,16,1,16,0.00
2013-10-26,49,42,34,36,30,27,79,64,44,30.30,29.95,25,4,25,0.00
2013-10-27,56,41,30,39,33,28,94,76,43,30.15,30.05,11,1,11,0.00
2013-10-28,62,42,27,43,33,26,95,75,38,30.36,30.15,10,0,10,0.00
2013-10-29,61,44,32,45,38,30,95,80,47,30.44,30.29,7,0,7,0.00
2013-10-30,67,53,42,56,47,40,93,81,60,30.29,30.09,8,0,8,0.00
2013-10-31,68,63,59,59,58,56,93,85,69,30.09,29.38,24,3,27,0.43
2013-11-1,68,58,52,60,49,44,91,73,56,29.72,29.32,29,5,31,0.40
2013-11-2,53,48,44,47,43,40,91,84,66,30.05,29.70,16,2,16,0.06
2013-11-3,53,42,33,41,36,29,95,79,48,30.50,30.05,7,0,7,0.00
2013-11-4,50,39,28,34,29,25,89,70,42,30.57,30.43,10,0,10,0.00
2013-11-5,62,50,41,43,38,32,88,64,45,30.50,30.32,8,0,8,0.00
2013-11-6,70,59,41,58,48,36,93,69,50,30.32,29.92,27,3,27,0.45
2013-11-7,60,44,40,57,37,28,92,75,54,30.19,29.92,15,3,15,0.31
2013-11-8,45,37,27,33,29,24,92,74,54,30.36,30.16,14,2,14,0.00
2013-11-9,60,45,27,37,30,25,93,60,31,30.33,30.00,27,4,29,0.00
2013-11-10,53,44,34,39,33,28,83,66,51,30.34,30.03,19,4,19,0.00
2013-11-11,49,40,29,39,31,26,92,73,50,30.33,30.08,22,2,22,0.07
2013-11-12,36,30,26,31,26,22,93,84,74,30.58,30.22,10,1,10,0.05
2013-11-13,39,31,25,25,21,18,79,66,50,30.63,30.42,16,3,16,0.01
2013-11-14,51,40,30,25,21,19,69,50,28,30.42,30.20,20,3,22,0.00
2013-11-15,56,46,36,34,26,20,64,46,31,30.25,30.15,26,2,26,0.00
2013-11-16,61,49,35,52,43,31,90,80,65,30.24,30.00,13,1,13,0.00
2013-11-17,63,59,54,59,54,42,91,84,59,30.01,29.50,42,5,42,0.85
2013-11-18,54,47,38,42,36,27,81,66,48,30.15,29.67,26,6,26,0.00
2013-11-19,41,35,25,28,26,23,90,70,55,30.46,30.15,9,1,10,0.00
2013-11-20,49,35,24,25,22,18,92,65,30,30.50,30.37,12,1,14,0.00
2013-11-21,57,45,35,43,33,19,89,64,43,30.46,30.24,10,0,10,0.10
2013-11-22,53,48,37,51,45,31,94,89,76,30.35,30.13,11,2,11,0.12
2013-11-23,38,30,20,31,23,12,91,78,56,30.49,30.27,15,3,15,0.00
2013-11-24,25,19,13,13,11,8,85,71,50,30.65,30.49,14,2,16,0.00
2013-11-25,36,26,13,29,14,9,92,64,41,30.60,30.28,20,1,24,0.00
2013-11-26,34,32,31,32,30,28,94,91,86,30.28,29.89,5,0,5,0.00
2013-11-27,32,28,21,29,22,13,93,81,67,30.25,29.85,8,0,8,0.00
2013-11-28,29,23,13,23,18,9,89,80,71,30.51,30.25,8,0,8,0.00
2013-11-29,37,26,17,25,20,14,92,79,53,30.72,30.50,4,0,4,0.24
2013-11-30,43,28,17,29,22,15,92,80,56,30.67,30.27,9,0,9,0.16
2013-12-1,42,35,26,32,29,24,92,78,63,30.27,30.03,10,0,10,0.12
2013-12-2,44,37,32,37,33,29,92,86,73,30.02,29.90,5,0,5,0.02
2013-12-3,56,42,34,43,38,32,94,85,62,29.97,29.90,10,0,10,0.03
2013-12-4,61,49,37,52,44,35,94,83,67,30.01,29.84,10,0,11,0.00
2013-12-5,62,55,36,59,49,33,92,82,68,30.14,29.83,14,2,14,0.33
2013-12-6,36,32,28,33,30,26,93,91,87,30.38,30.09,6,0,6,0.14
2013-12-7,28,23,13,26,18,10,91,80,63,30.68,30.38,7,0,7,0.00
2013-12-8,31,23,12,29,19,10,93,84,68,30.67,30.10,11,1,12,0.00
2013-12-9,37,33,28,35,29,22,94,85,73,30.23,30.02,21,4,21,0.04
2013-12-10,28,24,20,22,16,6,90,72,42,30.37,30.14,24,4,24,0.00
2013-12-11,31,23,17,22,15,12,84,73,59,30.50,30.32,17,3,18,0.00
2013-12-12,22,16,7,14,5,-2,85,63,39,30.58,30.37,21,3,21,0.00
2013-12-13,36,26,18,24,15,6,83,63,49,30.37,30.27,12,2,12,0.00
2013-12-14,38,33,28,37,30,23,94,88,77,30.30,29.73,8,0,8,0.25
2013-12-15,37,27,21,36,22,13,93,82,68,30.14,29.74,30,5,30,0.04
2013-12-16,26,22,19,24,16,12,91,77,60,30.26,30.09,10,1,11,0.00
2013-12-17,33,29,26,30,24,22,93,84,72,30.15,30.02,13,2,13,0.00
2013-12-18,32,27,25,23,21,18,85,77,62,30.27,30.13,18,4,19,0.00
2013-12-19,50,39,31,35,27,19,85,64,53,30.17,30.04,17,2,17,0.05
2013-12-20,56,51,41,53,42,30,91,72,49,30.04,29.89,20,4,24,0.04
2013-12-21,61,58,56,58,56,52,93,91,84,29.89,29.52,24,2,24,1.16
2013-12-22,71,59,48,61,52,43,92,79,61,29.99,29.48,32,6,34,0.24
2013-12-23,49,37,30,44,31,21,91,79,66,30.37,29.98,14,2,14,0.02
2013-12-24,30,21,12,22,14,8,83,73,69,30.65,30.33,16,2,16,0.00
2013-12-25,30,21,10,24,13,7,88,74,49,30.62,30.27,17,1,17,0.00
2013-12-26,38,31,29,27,21,17,83,67,45,30.41,30.19,29,3,29,0.00
2013-12-27,45,36,29,31,26,19,75,66,57,30.43,30.31,13,2,15,0.00
2013-12-28,52,43,36,34,29,26,72,59,49,30.31,30.07,19,4,19,0.00
2013-12-29,45,42,39,42,34,26,93,75,49,30.07,29.76,14,1,14,0.17
2013-12-30,42,31,23,38,24,13,86,76,62,30.29,29.93,9,1,13,0.00
2013-12-31,26,24,21,20,17,12,83,75,63,30.40,30.16,21,3,21,0.00
2014-1-1,36,28,25,27,23,20,84,79,68,30.40,30.15,4,0,4,0.00
2014-1-2,26,23,19,22,19,15,89,85,82,30.15,29.83,7,0,9,0.00